Airfield :
LOGIN :

Register | Disclaimer

   EN    FR    IT 

 










Legend :    VFR   Marginal VFR   IFR   Intensive IFR   Very Intensive IFR
Visi :
Ceiling :
>= 8 km
>= 3000ft
5 to 8 km
1000 to 3000 ft
1500m to 5 km
500 to 1000 ft
800 to 1500m
200 to 500 ft
< 800m
< 200 ft
Symbols :   Thunderstorms  Fog  Heavy snow  Heavy precipitations  Wind > 20 kt
SIGMETs :     Misc.  Thunderstorms  Icing  Turbulence  Mountain Waves  Volcanic Ashes







- Airport Elevation : 13 ft
- IATA code : LYX
- Download approach charts


EGMD - Lydd

CURRENT METAR :
  • 231350Z 23013KT CAVOK 21/13 Q1027

EXPIRED METARs :
  • 231320Z 22014KT CAVOK 20/13 Q1027
  • 231250Z 23016KT CAVOK 20/13 Q1027
  • 231220Z 22015KT CAVOK 20/14 Q1027
  • 231150Z 22013KT CAVOK 20/13 Q1028
  • 231120Z 22014KT CAVOK 19/13 Q1028

TAF TAF EGMD
Valid from the 23 at 12:00 until the 23 at 21:00 UTC


231058Z 2312/2321 23010KT CAVOK
ATIS : +44 1797 322 422
No reported NOTAMs for that airfield.



MET'MAP, your aeronautical weather chart ! - Copyright ORBIFLY December 2007 - Disclaimer

ORBIFLY MET'MAP TEAM :

Programming & Development : Alexandra Zaïnal
Concept & Development : Baudouin d'Aumeries
Co-Development & Prog : Marc-Olivier Méhu
Technical & hardware support : Manuel Goepfert

Contact : metmap@orbifly.com




SOURCES & CREDITS :

   NOAA